Regional Weather Roundup
Issued by NWS

Home | Current Version | Previous Version | Text Only | Print | Product List | Glossary Off
Versions: 1 2 3 4 5 6 7 8 9 10 11 12 13 14 15 16 17 18 19 20 21 22 23 24 25 26 27 28 29 30 31 32 33 34 35 36 37 38 39 40 41 42 43 44 45 46 47 48 49 50

000
ASUS43 KLOT 051008
RWRIL

ILLINOIS REGIONAL WEATHER ROUNDUP
NATIONAL WEATHER SERVICE CHICAGO/ROMEOVILLE IL
500 AM CDT SUN JUL 05 2015

NOTE: "FAIR" INDICATES FEW OR NO CLOUDS BELOW 12,000 FEET WITH NO
SIGNIFICANT WEATHER AND/OR OBSTRUCTIONS TO VISIBILITY.

* THESE STATIONS ARE NOT UNDER NWS QUALITY CONTROL. THEY ALSO MAY NOT
  REPORT WEATHER SUCH AS PRECIPITATION OR FOG.

ILZ001-002-007-009-015-016-024-051100-
NORTHWEST ILLINOIS

CITY           SKY/WX    TMP DP  RH WIND       PRES   REMARKS
MOLINE         CLEAR     63  58  83 CALM      30.04R
STERLING*      CLEAR     57  55  94 SE3       30.05S
SAVANNA*       CLEAR     60  58  94 CALM      30.04R FOG
$$

ILZ003-004-008-010-011-017-018-051100-
NORTH CENTRAL ILLINOIS

CITY           SKY/WX    TMP DP  RH WIND       PRES   REMARKS
ROCKFORD       CLEAR     62  58  86 CALM      30.06S
FREEPORT*      CLEAR     59  57  95 S3        30.07R FOG
ROCHELLE*      CLEAR     57  56  96 CALM      30.07S
DE KALB*       CLEAR     58  55  91 CALM      30.07S
PERU*          CLEAR     65  59  81 CALM      30.07S
$$

ILZ005-006-012>014-019>023-051100-
NORTHEAST ILLINOIS

CITY           SKY/WX    TMP DP  RH WIND       PRES   REMARKS
CHICAGO-OHARE  CLEAR     60  57  89 CALM      30.06S FOG
CHICAGO-MIDWAY CLEAR     68  60  75 CALM      30.06S
AURORA         CLEAR     60  55  83 CALM      30.07S
LANSING*       CLEAR     61  58  91 CALM      30.08S FOG
JOLIET*        FOG       59  59  98 CALM      30.07S VSB<1/4
WAUKEGAN       CLEAR     60  57  89 SW3       30.05S FOG
DUPAGE AIRPORT CLEAR     60  58  92 CALM      30.06S FOG
KANKAKEE*      CLEAR     62  61  97 CALM      30.08S
WHEELING       CLEAR     60  56  86 CALM      30.07F FOG
MORRIS*        CLEAR     63  61  94 CALM      30.04S FOG
ROMEOVILLE*    CLEAR     61  58  92 SE5       30.07S FOG
NORTHERLY ISL    N/A     68  58  70 SW3         N/A
$$

LMZ740>746-051100-
SOUTHERN LAKE MICHIGAN

STATION/POSITION SKY/WX   TEMP    WIND        PRES    VSBY  WAVE
                          AIR SEA DIR/SP/G                  HT/PER
                          (F)     (DEG/KT/KT) (MB)    (MI)  (FT/S)
HARRISON CRIB              69     160/  3/  4   N/A
BURNHAM HARBOR             69     220/  3/  5   N/A
CALUMET HARBOR             66     190/  2/  2   N/A
BURNS HARBOR               67     190/  7/  8 1018.6S
MICHIGAN CITY              68     150/  8/ 11   N/A
MICHIGAN CITY 6N           65 64  190/  4/  4   N/A           0
ST. JOSEPH                 65 63                N/A           0
$$

ILZ025>027-034>036-040-047-049-050-058-095>099-051100-
WEST-CENTRAL ILLINOIS

CITY           SKY/WX    TMP DP  RH WIND       PRES   REMARKS
QUINCY         CLEAR     66  62  87 SE5       30.03F
GALESBURG*     CLEAR     62  60  93 CALM      30.05S
MACOMB*        CLEAR     59  58  99 CALM      30.07R FOG
JACKSONVILLE*  CLEAR     63  61  93 CALM      30.05S FOG
PITTSFIELD*    CLEAR     64  61  90 CALM      30.05S
$$

ILZ028>032-037-038-041>044-048-051>054-059>061-051100-
CENTRAL ILLINOIS

CITY           SKY/WX    TMP DP  RH WIND       PRES   REMARKS
PONTIAC        CLEAR     60  60  98 SE3       30.08S FOG
BLOOMINGTON    CLEAR     64  61  90 SW3       30.08S
DECATUR        CLEAR     60  57  89 CALM      30.07R
PEORIA         CLEAR     64  60  87 E3        30.05F FOG
LACON*         CLEAR     60  58  94 CALM      30.05S FOG
LINCOLN*       CLEAR     60  58  92 CALM      30.07S FOG
SPRINGFIELD    CLEAR     64  61  90 CALM      30.06R FOG
TAYLORVILLE    CLEAR     59  59 100 CALM      30.07R FOG
$$

ILZ033-039-045-046-055>057-062-063-051100-
EAST-CENTRAL ILLINOIS

CITY           SKY/WX    TMP DP  RH WIND       PRES   REMARKS
CHAMPAIGN      CLEAR     60  57  89 CALM      30.08R FOG
DANVILLE*      CLEAR     58  58  99 CALM      30.06R FOG
RANTOUL*       CLEAR     64  61  92 CALM      30.08S FOG
MATTOON        CLEAR     63  60  90 CALM      30.07R
PARIS*         MOCLDY    61  60  99 CALM      30.08R FOG
$$

ILZ079-100>102-051100-
SOUTHWEST ILLINOIS

CITY           SKY/WX    TMP DP  RH WIND       PRES   REMARKS
ALTON          FOG       61  61 100 CALM      30.05S VSB 3/4
BELLEVILLE     CLEAR     64  64 100 NW1       30.04R
CAHOKIA*       CLEAR     65  62  90 CALM      30.04S
SPARTA*        CLEAR     66  65  96 CALM      30.06S
$$

ILZ064>066-069>071-074>076-080>082-084>086-088>090-092>094-051100-
SOUTH-CENTRAL ILLINOIS

CITY           SKY/WX    TMP DP  RH WIND       PRES   REMARKS
CARBONDALE     FOG       67  65  93 CALM      30.05S VSB 1/4
CAIRO*         MOCLDY    69  69 100 CALM      30.04S FOG
EFFINGHAM*     CLEAR     63  60  92 CALM      30.08R FOG
MARION           N/A     66  66 100 CALM      30.06R FOG
MT. VERNON     PTCLDY    63  57  82 CALM      30.07R
CENTRALIA*     CLEAR     63  60  93 CALM      30.06R FOG
SALEM*         CLEAR     64  62  93 CALM      30.06R FOG
$$

ILZ067-068-072-073-078-083-087-091-051100-
SOUTHEAST ILLINOIS

CITY           SKY/WX    TMP DP  RH WIND       PRES   REMARKS
LAWRENCEVILLE  CLOUDY    67  65  93 N5        30.06R FOG
FLORA*         CLOUDY    65  64  97 N5        30.06R FOG
FAIRFIELD*     MOCLDY    67  66  94 CALM      30.05R FOG
HARRISBURG*    MOCLDY    67  67 100 CALM      30.06R FOG
ROBINSON*      MOCLDY    65  64  96 CALM      30.07R FOG
CARMI*         CLOUDY    69  64  83 CALM      30.05R HAZE
$$

ABBREVIATIONS USED IN REMARKS
   TC - TEMPERATURE IN CELSIUS
  WCI - WIND CHILL INDEX
   HX - HEAT INDEX
  VSB - VISIBILITY
$$




USA.gov is the U.S. government's official web portal to all federal, state and local government web resources and services.